Weather History for KENL - October, 2013

Change the Weather History Date:

Friday, October 25, 2013

  Actual Average (KSLO) Record (KSLO)
Temperature  
Mean Temperature 40 °F -  
Max Temperature 54 °F 64 °F 84 °F (1963)
Min Temperature 27 °F 42 °F 27 °F (1968)
Degree Days  
Heating Degree Days 24    
Moisture  
Dew Point 27 °F    
Average Humidity 65    
Maximum Humidity 92    
Minimum Humidity 32    
Precipitation  
Precipitation 0.00 in - - ()
Sea Level Pressure  
Sea Level Pressure 30.41 in    
Wind  
Wind Speed 2 mph (SSW)    
Max Wind Speed 9 mph    
Max Gust Speed -    
Visibility 10 miles    
Events      
Averages and records for this station are not official NWS values.
T = Trace of Precipitation, MM = Missing Value Source: NWS Daily Summary

Daily Weather History Graph

Daily Weather History Graph

Search for Another Location

Airport or City:

Trip Planner

Search our weather history database for the weather conditions in past years. The results will help you decide how hot, cold, wet, or windy it might be!

Date:

Astronomy

Oct. 25, 2013 Rise Set
Actual Time 7:15 AM CDT 6:04 PM CDT
Civil Twilight 6:48 AM CDT 6:31 PM CDT
Nautical Twilight 6:17 AM CDT 7:02 PM CDT
Astronomical Twilight 5:46 AM CDT 7:33 PM CDT
Moon 11:25 PM CDT (10/25) 12:55 PM CDT (10/25)
Length of Visible Light 11h 42m
Length of Day
10h 48m
Waning Gibbous, 62% of the Moon is Illuminated
Oct 25
Waning Gibbous
Oct 26
Last Quarter
Nov 3
New
Nov 9
First Quarter
Nov 17
Full

Hourly Weather History & Observations

Time (CDT) Temp. Windchill Dew Point Humidity Pressure Visibility Wind Dir Wind Speed Gust Speed Precip Events Conditions
12:15 AM 31.1 °F - 27.3 °F 86% 30.40 in 10.0 mi Calm Calm - N/A   Clear
12:35 AM 31.1 °F - 27.5 °F 87% 30.40 in 10.0 mi Calm Calm - N/A   Clear
12:55 AM 30.9 °F - 27.9 °F 88% 30.41 in 10.0 mi Calm Calm - N/A   Clear
1:15 AM 30.2 °F - 27.3 °F 89% 30.41 in 10.0 mi Calm Calm - N/A   Clear
1:35 AM 30.2 °F - 27.1 °F 88% 30.41 in 10.0 mi Calm Calm - N/A   Clear
1:55 AM 30.0 °F - 27.5 °F 90% 30.42 in 10.0 mi Calm Calm - N/A   Clear
2:15 AM 29.7 °F - 27.1 °F 90% 30.42 in 10.0 mi Calm Calm - N/A   Clear
2:35 AM 29.1 °F 24.1 °F 26.8 °F 91% 30.43 in 10.0 mi WSW 4.6 mph - N/A   Clear
2:55 AM 29.1 °F 25.4 °F 27.0 °F 92% 30.43 in 10.0 mi WSW 3.5 mph - N/A   Clear
3:15 AM 29.7 °F - 27.3 °F 91% 30.43 in 10.0 mi Calm Calm - N/A   Clear
3:35 AM 29.5 °F - 26.8 °F 90% 30.43 in 10.0 mi Calm Calm - N/A   Clear
3:55 AM 29.3 °F - 27.0 °F 91% 30.44 in 10.0 mi Calm Calm - N/A   Clear
4:15 AM 29.3 °F - 26.8 °F 90% 30.44 in 10.0 mi Calm Calm - N/A   Clear
4:35 AM 28.4 °F - 26.4 °F 92% 30.45 in 10.0 mi Calm Calm - N/A   Clear
4:55 AM 27.7 °F - 25.2 °F 90% 30.45 in 10.0 mi Calm Calm - N/A   Clear
5:15 AM 27.7 °F - 25.2 °F 90% 30.46 in 10.0 mi Calm Calm - N/A   Clear
5:35 AM 28.8 °F - 26.2 °F 90% 30.46 in 10.0 mi Calm Calm - N/A   Clear
5:55 AM 27.7 °F 23.8 °F 25.7 °F 92% 30.47 in 10.0 mi WSW 3.5 mph - N/A   Clear
6:15 AM 27.7 °F - 25.3 °F 91% 30.47 in 10.0 mi Calm Calm - N/A   Clear
6:35 AM 28.0 °F - 25.5 °F 90% 30.48 in 10.0 mi Calm Calm - N/A   Clear
6:55 AM 28.4 °F - 25.7 °F 90% 30.48 in 10.0 mi Calm Calm - N/A   Clear
7:15 AM 28.4 °F - 25.9 °F 90% 30.48 in 10.0 mi Calm Calm - N/A   Clear
7:35 AM 27.1 °F - 25.0 °F 92% 30.49 in 10.0 mi Calm Calm - N/A   Clear
7:55 AM 29.3 °F - 27.0 °F 91% 30.49 in 10.0 mi Calm Calm - N/A   Clear
8:15 AM 31.5 °F - 28.8 °F 90% 30.50 in 10.0 mi Calm Calm - N/A   Clear
8:35 AM 34.5 °F - 30.6 °F 85% 30.50 in 10.0 mi Calm Calm - N/A   Clear
8:55 AM 36.7 °F - 31.1 °F 80% 30.51 in 10.0 mi Calm Calm - N/A   Clear
9:15 AM 39.0 °F 34.8 °F 31.6 °F 75% 30.52 in 10.0 mi West 5.8 mph - N/A   Clear
9:35 AM 40.8 °F 36.9 °F 31.8 °F 70% 30.52 in 10.0 mi West 5.8 mph - N/A   Clear
9:55 AM 42.6 °F 39.9 °F 31.8 °F 66% 30.52 in 10.0 mi WSW 4.6 mph - N/A   Clear
10:15 AM 43.7 °F 40.3 °F 30.9 °F 61% 30.52 in 10.0 mi West 5.8 mph - N/A   Clear
10:35 AM 45.3 °F 43.0 °F 30.4 °F 56% 30.51 in 10.0 mi SW 4.6 mph - N/A   Clear
10:55 AM 46.4 °F 44.3 °F 26.6 °F 46% 30.51 in 10.0 mi SW 4.6 mph - N/A   Clear
11:15 AM 47.3 °F - 26.8 °F 45% 30.51 in 10.0 mi SW 3.5 mph - N/A   Clear
11:35 AM 48.2 °F - 26.1 °F 42% 30.50 in 10.0 mi Calm Calm - N/A   Clear
11:55 AM 48.6 °F - 25.7 °F 41% 30.50 in 10.0 mi Calm Calm - N/A   Clear
12:15 PM 49.3 °F - 25.3 °F 39% 30.49 in 10.0 mi Calm Calm - N/A   Clear
12:35 PM 50.0 °F - 26.1 °F 39% 30.48 in 10.0 mi Calm Calm - N/A   Clear
12:55 PM 50.5 °F - 25.7 °F 38% 30.47 in 10.0 mi North 4.6 mph - N/A   Clear
1:15 PM 52.0 °F - 26.2 °F 37% 30.46 in 10.0 mi WNW 4.6 mph - N/A   Clear
1:35 PM 52.0 °F - 26.4 °F 37% 30.45 in 10.0 mi West 5.8 mph - N/A   Clear
1:55 PM 52.5 °F - 26.1 °F 36% 30.43 in 10.0 mi Calm Calm - N/A   Clear
2:15 PM 52.9 °F - 25.9 °F 35% 30.42 in 10.0 mi Calm Calm - N/A   Clear
2:35 PM 53.6 °F - 25.9 °F 34% 30.42 in 10.0 mi West 4.6 mph - N/A   Clear
2:55 PM 53.2 °F - 25.3 °F 34% 30.41 in 10.0 mi Calm Calm - N/A   Clear
3:15 PM 53.6 °F - 25.0 °F 33% 30.40 in 10.0 mi Calm Calm - N/A   Clear
3:35 PM 53.8 °F - 25.2 °F 33% 30.39 in 10.0 mi SW 4.6 mph - N/A   Clear
3:55 PM 54.0 °F - 24.8 °F 32% 30.38 in 10.0 mi West 3.5 mph - N/A   Clear
4:15 PM 53.8 °F - 25.0 °F 33% 30.38 in 10.0 mi West 3.5 mph - N/A   Clear
4:35 PM 54.0 °F - 26.1 °F 34% 30.37 in 10.0 mi SSE 4.6 mph - N/A   Clear
4:55 PM 53.4 °F - 25.7 °F 34% 30.36 in 10.0 mi SSW 5.8 mph - N/A   Clear
5:15 PM 52.7 °F - 26.4 °F 36% 30.35 in 10.0 mi South 6.9 mph - N/A   Clear
5:35 PM 51.1 °F - 26.8 °F 39% 30.35 in 10.0 mi South 8.1 mph - N/A   Clear
5:55 PM 48.0 °F - 28.6 °F 47% 30.34 in 10.0 mi South 4.6 mph - N/A   Clear
6:15 PM 45.7 °F 43.4 °F 28.0 °F 50% 30.34 in 10.0 mi South 4.6 mph - N/A   Clear
6:35 PM 43.7 °F 41.1 °F 28.2 °F 54% 30.34 in 10.0 mi South 4.6 mph - N/A   Clear
6:55 PM 41.0 °F 37.1 °F 28.9 °F 62% 30.34 in 10.0 mi SSE 5.8 mph - N/A   Clear
7:15 PM 39.4 °F 35.2 °F 28.8 °F 66% 30.33 in 10.0 mi SSE 5.8 mph - N/A   Clear
7:35 PM 39.4 °F 35.2 °F 28.9 °F 66% 30.33 in 10.0 mi SSE 5.8 mph - N/A   Clear
7:55 PM 40.1 °F 36.1 °F 29.1 °F 65% 30.33 in 10.0 mi SSE 5.8 mph - N/A   Clear
8:15 PM 40.1 °F 35.3 °F 29.3 °F 65% 30.32 in 10.0 mi SSE 6.9 mph - N/A   Clear
8:35 PM 39.6 °F 35.4 °F 28.6 °F 65% 30.31 in 10.0 mi SSE 5.8 mph - N/A   Clear
8:55 PM 40.1 °F 35.3 °F 29.1 °F 65% 30.31 in 10.0 mi SSE 6.9 mph - N/A   Clear
9:15 PM 40.5 °F 35.8 °F 29.1 °F 64% 30.30 in 10.0 mi SSE 6.9 mph - N/A   Clear
9:35 PM 40.5 °F 35.1 °F 29.1 °F 64% 30.30 in 10.0 mi SSE 8.1 mph - N/A   Clear
9:55 PM 39.6 °F 34.0 °F 29.1 °F 66% 30.30 in 10.0 mi South 8.1 mph - N/A   Clear
10:15 PM 40.1 °F 34.7 °F 29.1 °F 65% 30.29 in 10.0 mi South 8.1 mph - N/A   Clear
10:35 PM 40.6 °F 34.8 °F 29.3 °F 64% 30.28 in 10.0 mi South 9.2 mph - N/A   Clear
10:55 PM 40.1 °F 34.1 °F 29.1 °F 65% 30.28 in 10.0 mi South 9.2 mph - N/A   Clear
11:15 PM 40.3 °F 34.9 °F 29.3 °F 65% 30.27 in 10.0 mi South 8.1 mph - N/A   Clear
11:35 PM 40.1 °F 34.1 °F 29.3 °F 65% 30.26 in 10.0 mi South 9.2 mph - N/A   Clear
11:55 PM 40.1 °F 34.7 °F 29.3 °F 65% 30.25 in 10.0 mi South 8.1 mph - N/A   Clear